Location: Azul
(36.7830°S, 59.8500°W)
Time: 01:18:56
(UTC-03:00)

CUBEBUG 2 - Visible Passes

Search period start: 23 October 2021 00:00
Search period end: 02 November 2021 00:00
Orbit: 585 x 696 km, 97.7° (Epoch: 22 October)

Date Brightness Start Highest point End Pass type
(mag) Time Alt. Az. Time Alt. Az. Time Alt. Az.
23 Oct ? 03:08:27 31° ESE 03:08:27 31° ESE 03:12:02 10° S visible
23 Oct ? 04:46:02 16° WSW 04:46:02 16° WSW 04:47:48 10° SW visible
24 Oct ? 03:32:14 56° SE 03:32:14 56° SE 03:36:03 10° S visible
25 Oct ? 03:56:00 60° SW 03:56:00 60° SW 03:59:46 10° SSW visible
26 Oct ? 02:42:13 17° E 02:42:57 17° ESE 02:45:48 10° SSE visible
26 Oct ? 04:19:47 34° WSW 04:19:47 34° WSW 04:23:11 10° SSW visible
27 Oct ? 03:05:59 30° E 03:06:25 31° ESE 03:10:16 10° S visible
27 Oct ? 04:43:34 19° W 04:43:34 19° W 04:46:08 10° SW visible
28 Oct ? 03:29:47 57° E 03:29:58 58° ESE 03:34:18 10° S visible
29 Oct ? 03:53:34 73° WNW 03:53:37 73° WNW 03:58:02 10° SSW visible
30 Oct ? 02:39:46 15° E 02:41:10 17° ESE 02:44:01 10° SSE visible
30 Oct ? 04:17:21 37° W 04:17:21 37° W 04:21:28 10° SSW visible
31 Oct ? 03:03:34 27° E 03:04:37 30° ESE 03:08:30 10° S visible
31 Oct ? 04:41:09 20° W 04:41:11 20° W 04:44:27 10° SW visible
01 Nov ? 03:27:21 48° ENE 03:28:10 57° ESE 03:32:32 10° S visible
01 Nov ? 05:04:57 11° W 05:05:07 11° W 05:06:04 10° WSW visible
